EW0415 Weather Reports


time (UTC)temp
C
wind
direction
speed
KPH
gust
KPH
rain 1hr
cm
rain 24hr
cm
rain mn
cm
humidity
%
barometer
mb
20260503070511 16 287 6.4 20.9 0.00 0.28 0.23 69 1012.4
20260503055011 18 301 9.7 25.7 0.00 0.33 0.23 59 1011.9
20260503054537 18 305 9.7 22.5 0.00 0.33 0.23 59 1011.9
20260503054011 18 308 9.7 30.6 0.00 0.33 0.23 59 1011.9
20260503053511 18 308 9.7 30.6 0.00 0.33 0.23 58 1012.0
20260503053030 18 270 9.7 30.6 0.00 0.33 0.23 58 1011.9
20260503052518 19 325 12.9 30.6 0.00 0.46 0.23 57 1012.0
20260503052010 19 324 9.7 30.6 0.00 0.46 0.23 58 1011.9
20260503051529 19 298 11.3 30.6 0.00 0.46 0.23 57 1011.9
20260503051011 19 296 9.7 30.6 0.00 0.46 0.23 57 1011.9
20260503050512 18 294 11.3 30.6 0.00 0.46 0.23 58 1012.0
20260503050029 18 286 12.9 30.6 0.00 0.46 0.23 58 1012.0
20260503045509 18 304 9.7 27.4 0.00 0.46 0.23 59 1011.9
20260503045015 18 299 11.3 25.7 0.00 0.46 0.23 57 1012.0
20260503044540 18 307 9.7 27.4 0.00 0.46 0.23 57 1012.0
20260503044013 18 314 9.7 32.2 0.00 0.46 0.23 58 1011.8
20260503043512 18 278 12.9 32.2 0.00 0.46 0.23 56 1012.0
20260503043028 19 313 9.7 29.0 0.00 0.46 0.23 57 1012.0
20260503042511 19 309 12.9 29.0 0.00 0.53 0.23 56 1012.0
20260503042011 19 296 12.9 29.0 0.00 0.53 0.23 57 1012.0
20260503041528 19 273 9.7 27.4 0.00 0.53 0.23 57 1012.0
20260503041012 19 320 11.3 27.4 0.00 0.53 0.23 57 1012.1
20260503040510 19 304 12.9 29.0 0.00 0.53 0.23 58 1012.1
20260503040029 18 321 9.7 29.0 0.00 0.53 0.23 60 1012.1
20260503035509 18 296 11.3 29.0 0.00 0.53 0.23 60 1012.3
20260503035014 18 271 11.3 27.4 0.00 0.53 0.23 58 1012.3
20260503034528 18 296 11.3 25.7 0.00 0.53 0.23 58 1012.4
20260503034010 18 303 8.0 25.7 0.00 0.53 0.23 59 1012.3
20260503033517 18 360 11.3 25.7 0.00 0.53 0.23 61 1012.4
20260503033029 18 298 9.7 25.7 0.00 0.53 0.23 62 1012.5
20260503032510 18 310 11.3 27.4 0.00 0.66 0.23 64 1012.5
20260503032010 17 320 14.5 30.6 0.00 0.66 0.23 64 1012.5
20260503031529 17 275 14.5 30.6 0.00 0.66 0.23 66 1012.5
20260503031009 17 300 8.0 27.4 0.00 0.66 0.23 67 1012.5
20260503030515 17 305 9.7 27.4 0.00 0.66 0.23 66 1012.5
20260503030029 17 202 9.7 27.4 0.00 0.66 0.23 65 1012.5
20260503025508 17 289 11.3 27.4 0.00 0.66 0.23 64 1012.6
20260503025009 18 321 6.4 20.9 0.00 0.66 0.23 65 1012.5
20260503024526 18 298 8.0 29.0 0.00 0.66 0.23 64 1012.6
20260503024010 18 277 6.4 29.0 0.00 0.66 0.23 64 1012.7
20260503023510 18 300 6.4 29.0 0.00 0.66 0.23 65 1012.7
20260503023027 18 285 11.3 29.0 0.00 0.66 0.23 64 1012.9
20260503022507 18 105 8.0 27.4 0.00 0.66 0.23 64 1012.8
20260503022015 18 315 8.0 29.0 0.00 0.66 0.23 64 1012.8
20260503021526 18 300 8.0 29.0 0.00 0.66 0.23 65 1012.9
20260503021009 17 303 11.3 24.1 0.00 0.66 0.23 65 1012.8
20260503020512 17 304 4.8 27.4 0.00 0.66 0.23 65 1012.9
20260503020027 17 311 12.9 27.4 0.00 0.66 0.23 64 1013.0
20260503015510 17 319 11.3 27.4 0.00 0.66 0.23 64 1012.9
20260503015008 17 300 11.3 27.4 0.00 0.66 0.23 64 1012.8
20260503014528 17 306 11.3 27.4 0.00 0.66 0.23 63 1012.9
20260503014009 17 307 9.7 25.7 0.00 0.66 0.23 64 1012.9
20260503013513 17 284 8.0 24.1 0.00 0.66 0.23 65 1013.0
20260503013035 17 281 9.7 24.1 0.00 0.66 0.23 66 1013.0
20260503012512 17 300 9.7 25.7 0.00 0.66 0.23 67 1013.1
20260503012014 16 340 9.7 29.0 0.00 0.66 0.23 67 1013.0
20260503011530 16 311 9.7 38.6 0.00 0.66 0.23 67 1013.0
20260503011011 16 298 11.3 38.6 0.00 0.66 0.23 67 1013.2
20260503010510 16 311 12.9 30.6 0.00 0.66 0.23 67 1013.3
20260503010028 16 286 4.8 22.5 0.00 0.66 0.23 68 1013.2
20260503005509 16 318 8.0 29.0 0.00 0.66 0.23 68 1013.1
20260503005008 16 303 9.7 29.0 0.00 0.66 0.23 68 1013.3
20260503004530 17 304 6.4 27.4 0.00 0.66 0.23 69 1013.3
20260503004009 17 291 8.0 27.4 0.00 0.66 0.23 69 1013.2
20260503003507 17 309 4.8 19.3 0.00 0.66 0.23 71 1013.3
20260503003026 16 289 8.0 17.7 0.00 0.66 0.23 71 1013.4
20260503002515 16 82 4.8 17.7 0.00 0.66 0.23 72 1013.3
20260503002012 16 302 4.8 20.9 0.00 0.66 0.23 73 1013.5
20260503001530 16 297 6.4 20.9 0.00 0.66 0.23 74 1013.4
20260503001012 16 308 3.2 12.9 0.00 0.66 0.23 75 1013.4
20260503000508 16 317 3.2 17.7 0.00 0.66 0.23 75 1013.3
20260503000036 15 307 3.2 17.7 0.00 0.66 0.23 76 1013.3
20260502235512 15 300 3.2 16.1 0.00 0.66 0.23 77 1013.3
20260502235011 15 294 3.2 16.1 0.00 0.66 0.23 78 1013.3
20260502234531 15 300 3.2 16.1 0.00 0.66 0.23 79 1013.4
20260502234011 15 309 1.6 12.9 0.00 0.66 0.23 79 1013.3
20260502233512 14 308 3.2 12.9 0.00 0.66 0.23 80 1013.3
20260502233028 14 290 1.6 12.9 0.00 0.66 0.23 81 1013.5
20260502232513 14 325 3.2 12.9 0.00 0.66 0.23 82 1013.4
20260502232010 13 360 1.6 11.3 0.00 0.66 0.23 83 1013.4
20260502231527 13 296 0.0 19.3 0.00 0.66 0.23 83 1013.3
20260502231012 13 360 3.2 19.3 0.00 0.66 0.23 84 1013.4
20260502230511 13 313 1.6 14.5 0.00 0.66 0.23 84 1013.3
20260502230031 13 61 3.2 14.5 0.00 0.66 0.23 85 1013.4
20260502225510 13 360 3.2 14.5 0.00 0.66 0.23 85 1013.3
20260502225013 13 360 1.6 11.3 0.00 0.64 0.20 86 1013.4
20260502224530 12 76 1.6 11.3 0.00 0.64 0.20 86 1013.3
20260502224014 12 78 1.6 8.0 0.00 0.64 0.20 86 1013.3
20260502223515 12 80 1.6 12.9 0.00 0.64 0.20 86 1013.3
20260502223028 12 0 1.6 12.9 0.00 0.64 0.20 86 1013.4
20260502222507 12 46 1.6 9.7 0.00 0.64 0.20 86 1013.3
20260502222008 12 0 1.6 9.7 0.00 0.64 0.20 86 1013.2
20260502221534 12 46 1.6 12.9 0.00 0.64 0.20 86 1013.1
20260502221010 12 0 3.2 12.9 0.00 0.64 0.20 86 1013.1
20260502220509 12 0 1.6 9.7 0.00 0.64 0.20 86 1013.2
20260502220028 12 65 1.6 9.7 0.00 0.64 0.20 86 1013.2
20260502215512 12 67 3.2 9.7 0.00 0.64 0.20 86 1013.0
20260502215011 12 71 3.2 11.3 0.00 0.64 0.20 87 1012.9
20260502214527 12 69 3.2 11.3 0.00 0.64 0.20 87 1012.9
20260502214014 12 56 1.6 9.7 0.00 0.64 0.20 87 1012.8
20260502213508 12 0 1.6 9.7 0.00 0.64 0.20 87 1012.7
20260502213028 12 57 1.6 11.3 0.00 0.64 0.20 87 1012.7
20260502212508 12 0 3.2 11.3 0.00 0.64 0.20 87 1012.7
20260502212012 12 46 1.6 8.0 0.00 0.64 0.20 87 1012.6
20260502211529 12 44 1.6 8.0 0.00 0.64 0.20 87 1012.5
20260502211011 12 47 1.6 8.0 0.00 0.64 0.20 87 1012.4
20260502210509 12 41 1.6 8.0 0.00 0.64 0.20 87 1012.3
20260502210030 12 0 1.6 8.0 0.00 0.64 0.20 87 1012.2
20260502205512 12 44 1.6 8.0 0.00 0.64 0.20 87 1012.2
20260502205011 12 44 1.6 8.0 0.00 0.64 0.20 87 1012.1
20260502204527 12 44 3.2 14.5 0.00 0.64 0.20 87 1012.1
20260502204011 12 45 3.2 14.5 0.00 0.64 0.20 87 1012.0
20260502203511 12 40 1.6 9.7 0.00 0.64 0.20 87 1012.0
20260502203027 12 46 1.6 9.7 0.00 0.64 0.20 87 1012.1
20260502202511 12 42 3.2 9.7 0.00 0.64 0.20 87 1011.9
20260502202013 12 40 1.6 8.0 0.00 0.64 0.20 87 1012.1
20260502201531 12 41 1.6 8.0 0.00 0.64 0.20 87 1012.1
20260502201014 12 0 1.6 8.0 0.00 0.64 0.20 87 1012.0
20260502200512 12 0 0.0 8.0 0.00 0.64 0.20 87 1012.0
20260502200030 12 42 0.0 8.0 0.00 0.64 0.20 87 1012.0
20260502195510 12 43 0.0 8.0 0.00 0.64 0.20 87 1012.0
20260502195010 12 0 1.6 8.0 0.00 0.64 0.20 87 1011.9
20260502194528 12 50 1.6 8.0 0.00 0.64 0.20 87 1012.1
20260502194010 12 54 0.0 8.0 0.00 0.64 0.20 87 1011.9
20260502193511 12 55 1.6 8.0 0.00 0.64 0.20 86 1011.8
20260502193030 12 0 1.6 9.7 0.00 0.64 0.20 86 1011.8
20260502192510 12 57 3.2 9.7 0.00 0.64 0.20 86 1011.8
20260502192014 12 0 0.0 6.4 0.00 0.64 0.20 86 1011.7
20260502191528 12 53 1.6 8.0 0.00 0.64 0.20 86 1011.8
20260502191014 12 0 0.0 8.0 0.03 0.64 0.20 86 1011.8
20260502190514 12 0 0.0 8.0 0.08 0.64 0.20 86 1011.6
20260502190030 12 0 0.0 4.8 0.10 0.64 0.20 86 1011.6
20260502185511 12 0 0.0 4.8 0.13 0.64 0.20 86 1011.6
20260502185012 12 55 0.0 4.8 0.13 0.64 0.20 86 1011.6
20260502184528 12 0 0.0 4.8 0.13 0.64 0.20 86 1011.6
20260502184010 12 52 0.0 4.8 0.15 0.64 0.20 86 1011.6
20260502183509 12 0 0.0 4.8 0.15 0.64 0.20 86 1011.5
20260502183030 12 51 0.0 4.8 0.18 0.64 0.20 86 1011.7
20260502182509 12 56 0.0 4.8 0.18 0.64 0.20 86 1011.6
20260502182008 12 0 0.0 4.8 0.18 0.64 0.20 86 1011.7
20260502181527 12 55 0.0 6.4 0.18 0.64 0.18 86 1011.7
20260502181010 12 0 0.0 6.4 0.13 0.58 0.15 86 1011.8
20260502180510 12 0 0.0 4.8 0.08 0.56 0.10 86 1011.7
20260502170514 12 0 0.0 9.7 0.00 0.46 0.00 86 1011.9
20260502164011 12 47 1.6 6.4 0.00 0.43 0.00 86 1011.9
20260502163513 12 45 1.6 6.4 0.00 0.43 0.00 86 1012.0
20260502163036 12 52 0.0 4.8 0.00 0.43 0.00 86 1012.0
20260502162508 12 55 0.0 6.4 0.00 0.43 0.00 86 1012.0
20260502162012 12 52 0.0 8.0 0.00 0.43 0.00 86 1012.1
20260502161543 12 53 1.6 8.0 0.00 0.43 0.00 86 1012.2
20260502161017 12 53 0.0 6.4 0.00 0.43 0.00 86 1012.2
20260502160510 12 0 0.0 6.4 0.00 0.43 0.00 86 1012.2
20260502152011 12 0 0.0 4.8 0.00 0.43 0.00 87 1012.1
20260502151528 12 0 0.0 4.8 0.00 0.43 0.00 87 1012.1
20260502151010 12 0 0.0 4.8 0.00 0.43 0.00 87 1012.2
20260502150510 12 46 0.0 3.2 0.00 0.43 0.00 87 1012.3
20260502130508 14 48 0.0 6.4 0.00 0.43 0.43 88 1012.8
20260502123515 14 0 1.6 6.4 0.00 0.43 0.43 88 1013.0
20260502123056 14 48 1.6 6.4 0.00 0.43 0.43 88 1013.0
20260502122509 14 0 0.0 6.4 0.00 0.43 0.43 88 1012.9
20260502122015 14 0 0.0 12.9 0.00 0.43 0.43 88 1012.9
20260502121528 14 0 0.0 12.9 0.00 0.43 0.43 88 1012.8
20260502121010 15 61 1.6 8.0 0.00 0.43 0.43 88 1012.8
20260502120508 15 57 0.0 8.0 0.00 0.43 0.43 88 1012.9
20260502115513 15 59 1.6 8.0 0.00 0.43 0.43 88 1012.7
20260502115015 15 59 0.0 6.4 0.00 0.43 0.43 88 1012.7
20260502114527 15 0 1.6 8.0 0.00 0.43 0.43 88 1012.6
20260502114008 15 0 0.0 8.0 0.00 0.43 0.43 88 1012.6
20260502113508 15 60 0.0 8.0 0.00 0.43 0.43 88 1012.7
20260502113030 15 0 1.6 4.8 0.00 0.43 0.43 88 1012.8
20260502112511 15 69 1.6 4.8 0.00 0.43 0.43 88 1012.6
20260502112012 15 0 0.0 12.9 0.00 0.43 0.43 88 1012.6
20260502111532 15 0 0.0 12.9 0.00 0.43 0.43 88 1012.4
20260502111008 15 0 0.0 12.9 0.00 0.43 0.43 88 1012.3
20260502110510 15 75 0.0 12.9 0.00 0.43 0.43 88 1012.4
20260502110037 15 0 3.2 12.9 0.00 0.43 0.43 88 1012.3
20260502105509 15 0 3.2 8.0 0.00 0.43 0.43 88 1012.1
20260502105009 15 49 1.6 8.0 0.00 0.43 0.43 88 1012.2
20260502104525 15 49 1.6 8.0 0.00 0.43 0.43 88 1012.2
20260502104009 15 51 3.2 8.0 0.00 0.43 0.43 88 1012.1
20260502103510 15 52 3.2 8.0 0.00 0.43 0.43 88 1012.0
20260502103032 15 53 0.0 14.5 0.00 0.43 0.43 88 1012.1
20260502102510 15 48 3.2 14.5 0.00 0.43 0.43 88 1012.1
20260502102017 15 322 0.0 8.0 0.00 0.43 0.43 88 1012.0
20260502101527 15 321 1.6 8.0 0.00 0.43 0.43 88 1012.0
20260502101015 15 321 0.0 8.0 0.00 0.43 0.43 88 1011.8
20260502100509 15 321 1.6 8.0 0.00 0.43 0.43 88 1011.9
20260502091528 15 0 0.0 4.8 0.00 0.43 0.43 87 1011.7
20260502091010 15 0 0.0 4.8 0.00 0.43 0.43 87 1011.6
20260502090508 15 315 0.0 4.8 0.00 0.43 0.43 87 1011.7
20260502071531 15 305 0.0 8.0 0.08 0.43 0.43 86 1011.3
20260502071008 15 0 0.0 8.0 0.08 0.43 0.43 86 1011.2